Location: Unspecified
(0.0000°N, 1.0000°E)
Time: 18:06:28
(UTC+02:00)

Amateur Radio Satellites - All Passes

Search period start: 30 July 2015 17:36
Search period end: 31 July 2015 17:36
Location: Unspecified, 0.0000°N, 1.0000°E

Satellite Date Start Highest point End Downlink Frequencies (MHz)
Time Altitude Azimuth
MOZHAYETS 4 30 Jul 17:39:25 17:43:38 37° 101° (E) 17:47:53
HORYU 2 30 Jul 18:24:22 18:27:16 17° 259° (W) 18:29:57 437.375
GONETS M04 30 Jul 18:28:48 18:36:07 32° 85° (E) 18:43:47
DANDE 30 Jul 18:39:16 18:43:33 21° 257° (WSW) 18:48:22 436.750
PHONESAT 2.4 30 Jul 18:40:58 18:44:27 89° 139° (SE) 18:47:56 2401.200-2431.200
SRMSAT 30 Jul 18:44:05 18:47:42 16° 192° (SSW) 18:51:15 437.500
Cubesat XI-IV 30 Jul 18:51:24 18:53:54 14° 79° (E) 18:56:48 437.490
AO-7 30 Jul 19:07:35 19:13:12 19° 256° (WSW) 19:18:15 29.400- 29.500
CUBESAT XI-V 30 Jul 19:27:27 19:31:49 45° 101° (ESE) 19:36:14 437.345
Cosmos 2499 30 Jul 19:41:20 19:46:47 19° 83° (E) 19:52:47 435.465 / 435.565
CUTE-I 30 Jul 19:45:14 19:50:34 66° 78° (ENE) 19:55:53 437.470
PRISM 30 Jul 19:52:08 19:53:59 13° 100° (E) 19:56:06 437.425
ISS 30 Jul 20:21:39 20:24:53 75° 126° (SE) 20:28:07 145.825
GONETS M04 30 Jul 20:25:12 20:32:51 33° 265° (W) 20:40:17
Cubesat XI-IV 30 Jul 20:28:57 20:33:56 38° 258° (WSW) 20:38:50 437.490
BRITE-PL 30 Jul 20:31:57 20:35:09 18° 82° (E) 20:38:24 437.365/2234.400
SRMSAT 30 Jul 20:37:19 20:37:55 10° 183° (S) 20:38:30 437.500
JUGNU 30 Jul 20:38:02 20:40:06 12° 172° (S) 20:42:14 437.505
STRAND 1 30 Jul 20:45:37 20:50:42 79° 283° (WNW) 20:55:48 437.568
GOMX 1 30 Jul 20:53:29 20:56:12 16° 82° (E) 20:59:04 467.674
HO-68 30 Jul 21:01:29 21:05:36 17° 77° (ENE) 21:10:11 435.675
SO-50 30 Jul 21:19:31 21:24:04 46° 67° (ENE) 21:28:31 436.795
PRISM 30 Jul 21:26:07 21:29:18 21° 281° (W) 21:32:23 437.425
RS-15 30 Jul 21:31:04 21:41:53 66° 112° (ESE) 21:52:40 29.354- 29.394
Cosmos 2499 30 Jul 21:31:21 21:39:58 55° 266° (W) 21:48:16 435.465 / 435.565
PCSat 30 Jul 21:34:42 21:40:07 87° 70° (ENE) 21:45:32 145.827
COMPASS 1 30 Jul 21:58:11 22:01:41 27° 79° (E) 22:05:16 437.405
CUTE 1.7 + AOD 2 30 Jul 22:08:59 22:13:14 75° 78° (ENE) 22:17:27 437.475
SEEDS 30 Jul 22:09:23 22:13:30 56° 79° (E) 22:17:38 437.485
Oscar 11 30 Jul 22:09:29 22:09:52 10° 80° (E) 22:10:37 145.826/435.025
BRITE-PL 30 Jul 22:09:34 22:13:36 23° 258° (WSW) 22:17:14 437.365/2234.400
CANX-2 30 Jul 22:17:04 22:21:18 71° 259° (W) 22:25:31 2200.000
JUGNU 30 Jul 22:25:21 22:29:56 23° 164° (SSE) 22:34:35 437.505
SRMSAT 30 Jul 22:26:07 22:28:16 12° 173° (S) 22:30:29 437.500
M-CUBED/EXP-1 PRIME 30 Jul 22:26:43 22:30:24 25° 103° (ESE) 22:34:01 437.505
DOVE 4 30 Jul 22:27:49 22:32:06 43° 258° (WSW) 22:36:08 437.250
GOMX 1 30 Jul 22:30:34 22:34:17 22° 258° (WSW) 22:37:40 467.674
AAUSAT CUBESAT 2 30 Jul 22:40:39 22:44:49 83° 260° (W) 22:49:00 437.432
DELFI C3 30 Jul 22:41:29 22:44:13 18° 80° (E) 22:47:07 145.870
HO-68 30 Jul 22:46:22 22:53:15 50° 256° (WSW) 23:00:03 435.675
CINEMA 3 30 Jul 22:51:06 22:55:18 59° 259° (WSW) 22:59:22 145.822/145.860
AUBIESAT-1 30 Jul 22:57:15 23:01:41 56° 105° (ESE) 23:05:52 437.475
ZACube-1 30 Jul 23:03:35 23:07:20 34° 79° (E) 23:11:06 437.345
UWE-3 30 Jul 23:22:50 23:26:59 81° 259° (W) 23:31:07 435.000/436.395/437.385
BEESAT 2 30 Jul 23:23:16 23:26:31 24° 113° (ESE) 23:29:52 435.950
FUNcube-1 30 Jul 23:25:46 23:29:53 74° 79° (E) 23:34:01 145.935
TIGRISAT 30 Jul 23:28:17 23:31:51 22° 100° (E) 23:35:34 435.000
ANTELSAT 30 Jul 23:29:06 23:32:50 24° 101° (E) 23:36:40 437.575/2403.000
CUBEBUG 2 30 Jul 23:34:45 23:38:37 37° 259° (W) 23:42:26 437.445
COMPASS 1 30 Jul 23:35:52 23:37:14 11° 261° (W) 23:38:17 437.405
AISAT 30 Jul 23:38:53 23:39:57 11° 80° (E) 23:41:21 437.250
Oscar 11 30 Jul 23:42:06 23:45:57 31° 259° (W) 23:49:44 145.826/435.025
UKube-1 30 Jul 23:43:37 23:47:00 23° 79° (E) 23:50:29 .
RS-15 30 Jul 23:47:02 23:54:23 19° 296° (WNW) 00:00:52 29.354- 29.394
DUCHIFAT 1 30 Jul 23:54:37 23:56:32 13° 100° (E) 23:58:44 145.980
QB50P1 30 Jul 23:56:03 23:58:22 15° 100° (E) 00:00:57 145.935-145.965
NANOSAT C BR1 30 Jul 23:57:56 00:00:22 16° 100° (E) 00:03:03 145.865
M-CUBED/EXP-1 PRIME 31 Jul 00:02:07 00:05:00 16° 286° (WNW) 00:07:34 437.505
BEESAT 3 31 Jul 00:05:12 00:09:04 50° 292° (WNW) 00:12:59 437.485
HUMSAT D 31 Jul 00:05:14 00:09:19 88° 249° (WSW) 00:13:26 437.325/437.525
DX 1 31 Jul 00:07:56 00:12:15 61° 78° (ENE) 00:16:33 434.975-435.025
JUGNU 31 Jul 00:13:23 00:19:16 56° 159° (SSE) 00:25:09 437.505
SRMSAT 31 Jul 00:13:41 00:18:16 23° 164° (SSE) 00:22:55 437.500
VELOX 1 31 Jul 00:15:34 00:19:39 37° 79° (E) 00:23:45 145.980
DELFI C3 31 Jul 00:16:42 00:19:10 15° 260° (W) 00:21:26 145.870
UNISAT 6 31 Jul 00:19:39 00:24:19 68° 282° (WNW) 00:28:59 437.425
ESTCUBE 1 31 Jul 00:20:10 00:23:58 27° 79° (E) 00:27:51 437.505/2401.250
50 SAT 31 Jul 00:20:51 00:24:36 56° 79° (ENE) 00:28:22 437.505
YUBILEINY 31 Jul 00:26:25 00:32:17 21° 96° (E) 00:38:40 435.215
Cosmos 2491 31 Jul 00:30:55 00:37:39 27° 85° (E) 00:44:48 435.465 / 435.565
POLYITAN 1 31 Jul 00:36:21 00:40:35 62° 101° (ESE) 00:44:51 437.675
AIST 2 31 Jul 00:43:07 00:47:07 46° 112° (ESE) 00:51:11 435.215
AIST 1 31 Jul 00:43:24 00:47:04 29° 85° (E) 00:50:51
POPSAT HIP 1 31 Jul 00:54:07 00:58:23 74° 281° (W) 01:02:41 437.405
QB50P2 31 Jul 01:01:24 01:05:34 54° 281° (W) 01:09:46 145.880/145.840
BEESAT 2 31 Jul 01:02:45 01:04:28 12° 295° (WNW) 01:05:55 435.950
TIGRISAT 31 Jul 01:05:09 01:08:27 18° 280° (W) 01:11:33 435.000
ANTELSAT 31 Jul 01:06:21 01:09:28 17° 280° (W) 01:12:21 437.575/2403.000
BUGSAT 1 31 Jul 01:07:49 01:11:56 86° 282° (WNW) 01:16:08 437.445
AISAT 31 Jul 01:12:28 01:16:26 31° 259° (W) 01:20:18 437.250
O/OREOS (USA 219) 31 Jul 01:17:51 01:20:13 15° 107° (ESE) 01:22:50 437.305
UKube-1 31 Jul 01:20:33 01:23:00 14° 259° (W) 01:25:12 .
DUCHIFAT 1 31 Jul 01:28:43 01:32:13 24° 280° (W) 01:35:38 145.980
QB50P1 31 Jul 01:30:46 01:34:06 22° 280° (W) 01:37:20 145.935-145.965
CUBEBUG 1 31 Jul 01:32:09 01:36:12 34° 259° (W) 01:40:08 437.445
NANOSAT C BR1 31 Jul 01:32:49 01:36:04 21° 280° (W) 01:39:13 145.865
ESTCUBE 1 31 Jul 01:58:19 02:00:43 14° 260° (W) 02:02:48 437.505/2401.250
SRMSAT 31 Jul 02:01:54 02:07:45 56° 160° (SSE) 02:13:37 437.500
JUGNU 31 Jul 02:02:31 02:08:22 53° 339° (NNW) 02:14:11 437.505
SPROUT 31 Jul 02:14:52 02:18:55 40° 259° (W) 02:22:54 437.525
YUBILEINY 31 Jul 02:20:46 02:29:02 47° 274° (W) 02:37:10 435.215
BEESAT 31 Jul 02:23:54 02:25:46 13° 80° (E) 02:27:58 436.000
Cosmos 2491 31 Jul 02:26:26 02:34:23 38° 265° (W) 02:42:13 435.465 / 435.565
Oscar 19 31 Jul 02:32:46 02:37:24 35° 102° (ESE) 02:42:10 437.125/150
TISAT 1 31 Jul 02:33:37 02:37:34 39° 259° (WSW) 02:41:28 437.305
SWISSCUBE 31 Jul 02:42:13 02:46:08 26° 79° (E) 02:50:10 437.505
O/OREOS (USA 219) 31 Jul 02:56:00 02:59:32 22° 286° (WNW) 03:02:56 437.305
ITUPSAT 1 31 Jul 03:01:47 03:06:17 41° 79° (ENE) 03:10:49 437.325
Gurwin Techsat 1B 31 Jul 03:18:39 03:22:57 27° 101° (ESE) 03:27:26 435.225
KKS-1 31 Jul 03:42:39 03:44:42 14° 80° (E) 03:47:03 437.445
Cosmos 2504 31 Jul 03:43:26 03:50:11 60° 94° (E) 03:57:06 435.465 / 435.565
ITAMSAT 1 31 Jul 03:49:42 03:54:44 55° 102° (ESE) 03:59:48 435.822/435.867
SRMSAT 31 Jul 03:51:11 03:57:00 53° 339° (NNW) 04:02:47 437.500
JUGNU 31 Jul 03:53:11 03:57:42 22° 344° (NNW) 04:02:09 437.505
BEESAT 31 Jul 03:59:12 04:03:31 33° 259° (WSW) 04:07:45 436.000
Oscar 19 31 Jul 04:13:51 04:16:41 14° 280° (W) 04:19:09 437.125/150
JAS-2 31 Jul 04:18:05 04:25:15 43° 101° (E) 04:31:58 435.910
SWISSCUBE 31 Jul 04:20:47 04:23:52 16° 259° (W) 04:26:40 437.505
CUSAT 1 31 Jul 04:36:29 04:40:00 21° 103° (ESE) 04:43:00 437.405
VERMONT LUNAR 31 Jul 04:53:50 04:56:48 45° 223° (SW) 04:59:44 437.305
STARS 31 Jul 04:54:00 04:58:23 76° 77° (ENE) 05:02:44 437.465
Gurwin Techsat 1B 31 Jul 04:58:59 05:02:50 20° 281° (W) 05:06:27 435.225
HORYU 2 31 Jul 04:59:34 05:03:32 32° 101° (ESE) 05:07:33 437.375
KKS-1 31 Jul 05:17:31 05:21:14 25° 259° (WSW) 05:24:50 437.445
AO-7 31 Jul 05:38:35 05:46:54 89° 106° (ESE) 05:55:14 29.400- 29.500
Cosmos 2504 31 Jul 05:41:16 05:42:29 10° 277° (W) 05:42:53 435.465 / 435.565
SRMSAT 31 Jul 05:42:01 05:46:29 21° 344° (NNW) 05:50:52 437.500
JUGNU 31 Jul 05:45:40 05:47:32 11° 353° (N) 05:49:19 437.505
DANDE 31 Jul 05:45:46 05:51:20 63° 274° (W) 05:55:23 436.750
MOZHAYETS 4 31 Jul 05:55:55 06:00:30 65° 79° (E) 06:05:04
JAS-2 31 Jul 06:04:08 06:10:02 23° 283° (WNW) 06:15:19 435.910
PHONESAT 2.4 31 Jul 06:18:44 06:22:09 68° 43° (NE) 06:25:33 2401.200-2431.200
CUSAT 1 31 Jul 06:21:11 06:22:11 10° 270° (W) 06:22:48 437.405
HORYU 2 31 Jul 06:38:35 06:40:04 11° 280° (W) 06:41:11 437.375
CUTE-I 31 Jul 06:48:13 06:49:56 12° 101° (E) 06:52:05 437.470
GONETS M04 31 Jul 07:01:26 07:10:04 63° 94° (E) 07:18:39
Cubesat XI-IV 31 Jul 07:28:39 07:33:34 41° 102° (ESE) 07:38:35 437.490
SRMSAT 31 Jul 07:34:42 07:36:28 11° 353° (N) 07:38:10 437.500
STRAND 1 31 Jul 07:41:27 07:44:22 16° 79° (E) 07:47:34 437.568
CUBESAT XI-V 31 Jul 07:45:40 07:50:25 84° 78° (ENE) 07:55:06 437.345
Cosmos 2499 31 Jul 07:51:30 07:56:04 19° 95° (E) 08:01:10 435.465 / 435.565
PRISM 31 Jul 07:55:10 07:57:35 16° 80° (E) 08:00:12 437.425
ISS 31 Jul 07:55:17 07:58:21 41° 54° (NE) 08:01:26 145.825
CUTE-I 31 Jul 08:24:56 08:29:56 42° 282° (WNW) 08:34:54 437.470
PCSat 31 Jul 08:29:37 08:33:04 18° 112° (ESE) 08:36:46 145.827
HO-68 31 Jul 08:53:55 08:57:04 14° 103° (ESE) 09:00:50 435.675
BRITE-PL 31 Jul 08:56:16 09:00:45 40° 102° (ESE) 09:05:39 437.365/2234.400
GONETS M04 31 Jul 09:02:05 09:06:55 15° 276° (W) 09:10:54
Cubesat XI-IV 31 Jul 09:11:18 09:13:37 12° 281° (W) 09:15:31 437.490
DOVE 4 31 Jul 09:11:20 09:14:37 18° 101° (ESE) 09:18:14 437.250
RS-15 31 Jul 09:11:53 09:23:39 58° 68° (ENE) 09:35:39 29.354- 29.394
GOMX 1 31 Jul 09:14:33 09:19:03 36° 102° (ESE) 09:23:54 467.674
STRAND 1 31 Jul 09:18:54 09:23:27 31° 258° (WSW) 09:27:54 437.568
JUGNU 31 Jul 09:24:17 09:27:42 16° 12° (NNE) 09:31:11 437.505
PRISM 31 Jul 09:29:44 09:32:53 20° 259° (W) 09:35:54 437.425
SO-50 31 Jul 09:32:01 09:36:31 87° 112° (ESE) 09:41:10 436.795
CINEMA 3 31 Jul 09:32:52 09:34:26 12° 100° (E) 09:36:24 145.822/145.860
Cosmos 2499 31 Jul 09:42:36 09:49:05 38° 275° (W) 09:55:37 435.465 / 435.565
COMPASS 1 31 Jul 10:02:46 10:06:28 31° 101° (E) 10:10:13 437.405
PCSat 31 Jul 10:11:41 10:16:23 30° 291° (WNW) 10:21:00 145.827
CUBEBUG 2 31 Jul 10:12:09 10:14:38 15° 100° (E) 10:17:25 437.445
SEEDS 31 Jul 10:15:03 10:19:14 69° 100° (E) 10:23:26 437.485
CUTE 1.7 + AOD 2 31 Jul 10:15:38 10:19:54 86° 280° (W) 10:24:10 437.475
Oscar 11 31 Jul 10:16:35 10:18:44 14° 100° (E) 10:21:09 145.826/435.025
CANX-2 31 Jul 10:23:53 10:28:03 55° 281° (WNW) 10:32:14 2200.000
M-CUBED/EXP-1 PRIME 31 Jul 10:28:36 10:31:09 19° 74° (ENE) 10:33:56 437.505
HO-68 31 Jul 10:37:40 10:44:44 60° 284° (WNW) 10:51:47 435.675
BRITE-PL 31 Jul 10:37:48 10:39:21 11° 277° (W) 10:40:29 437.365/2234.400
DELFI C3 31 Jul 10:41:45 10:44:28 18° 100° (E) 10:47:22 145.870
AAUSAT CUBESAT 2 31 Jul 10:44:56 10:49:05 71° 282° (WNW) 10:53:14 437.432
DOVE 4 31 Jul 10:47:59 10:52:11 27° 280° (W) 10:56:27 437.250
GOMX 1 31 Jul 10:54:46 10:57:11 13° 278° (W) 10:59:16 467.674
AUBIESAT-1 31 Jul 10:58:23 11:01:48 48° 75° (ENE) 11:05:29 437.475
CINEMA 3 31 Jul 11:06:54 11:11:28 39° 281° (W) 11:16:07 145.822/145.860
JUGNU 31 Jul 11:11:54 11:17:12 35° 19° (NNE) 11:22:31 437.505
ZACube-1 31 Jul 11:13:00 11:17:27 52° 101° (E) 11:21:56 437.345
SRMSAT 31 Jul 11:13:26 11:16:56 16° 13° (NNE) 11:20:32 437.500
BEESAT 2 31 Jul 11:18:14 11:21:32 26° 67° (ENE) 11:24:53 435.950
RS-15 31 Jul 11:26:20 11:36:15 27° 245° (WSW) 11:45:27 29.354- 29.394
UWE-3 31 Jul 11:33:46 11:38:22 56° 281° (W) 11:42:57 435.000/436.395/437.385
FUNcube-1 31 Jul 11:35:09 11:39:44 79° 280° (W) 11:44:19 145.935
TIGRISAT 31 Jul 11:41:25 11:45:08 30° 79° (E) 11:48:54 435.000
ANTELSAT 31 Jul 11:42:31 11:46:21 33° 79° (E) 11:50:14 437.575/2403.000
CUBEBUG 2 31 Jul 11:47:04 11:51:11 28° 281° (W) 11:55:14 437.445
AISAT 31 Jul 11:49:23 11:52:04 17° 101° (E) 11:54:59 437.250
Oscar 11 31 Jul 11:51:17 11:54:47 23° 281° (W) 11:58:11 145.826/435.025
UKube-1 31 Jul 11:52:05 11:55:50 30° 101° (ESE) 11:59:41 .
BEESAT 3 31 Jul 11:59:30 12:03:16 45° 248° (WSW) 12:07:00 437.485
DUCHIFAT 1 31 Jul 12:00:17 12:02:44 16° 80° (E) 12:05:22 145.980
QB50P1 31 Jul 12:02:14 12:05:02 18° 80° (E) 12:07:58 145.935-145.965
NANOSAT C BR1 31 Jul 12:03:55 12:06:47 19° 80° (E) 12:09:47 145.865
M-CUBED/EXP-1 PRIME 31 Jul 12:04:50 12:05:56 11° 258° (WSW) 12:06:46 437.505
CUBEBUG 1 31 Jul 12:08:11 12:10:11 14° 100° (E) 12:12:30 437.445
HUMSAT D 31 Jul 12:10:24 12:14:43 74° 280° (W) 12:19:01 437.325/437.525
DELFI C3 31 Jul 12:17:01 12:19:25 15° 280° (W) 12:21:38 145.870
50 SAT 31 Jul 12:17:20 12:21:09 49° 101° (E) 12:24:59 437.505
DX 1 31 Jul 12:17:36 12:21:56 85° 102° (ESE) 12:26:19 434.975-435.025
VELOX 1 31 Jul 12:27:14 12:31:32 55° 102° (ESE) 12:35:54 145.980
UNISAT 6 31 Jul 12:33:48 12:37:50 40° 259° (W) 12:41:50 437.425
ESTCUBE 1 31 Jul 12:34:02 12:38:14 42° 101° (E) 12:42:30 437.505/2401.250
AIST 2 31 Jul 12:41:57 12:45:56 58° 68° (ENE) 12:49:55 435.215
POLYITAN 1 31 Jul 12:43:19 12:47:31 79° 79° (ENE) 12:51:42 437.675
AIST 1 31 Jul 12:49:49 12:54:00 44° 95° (E) 12:58:11
SPROUT 31 Jul 12:50:27 12:50:59 10° 100° (E) 12:51:52 437.525
YUBILEINY 31 Jul 12:57:48 13:05:57 44° 86° (E) 13:14:15 435.215
BEESAT 2 31 Jul 12:59:01 12:59:28 10° 246° (WSW) 12:59:38 435.950
JUGNU 31 Jul 13:00:26 13:06:17 83° 202° (SSW) 13:12:10 437.505
POPSAT HIP 1 31 Jul 13:00:57 13:05:06 57° 259° (WSW) 13:09:11 437.405
SRMSAT 31 Jul 13:01:13 13:06:36 36° 19° (NNE) 13:12:03 437.500
Cosmos 2491 31 Jul 13:03:13 13:11:43 54° 94° (E) 13:20:13 435.465 / 435.565
QB50P2 31 Jul 13:08:25 13:12:26 42° 259° (W) 13:16:23 145.880/145.840
BUGSAT 1 31 Jul 13:11:34 13:15:44 75° 258° (WSW) 13:19:48 437.445
AISAT 31 Jul 13:25:05 13:28:31 21° 280° (W) 13:31:50 437.250
O/OREOS (USA 219) 31 Jul 13:27:29 13:31:14 26° 74° (ENE) 13:35:07 437.305
UKube-1 31 Jul 13:30:51 13:31:53 10° 280° (W) 13:32:32 .
DUCHIFAT 1 31 Jul 13:35:19 13:38:25 19° 259° (W) 13:41:21 145.980
QB50P1 31 Jul 13:37:54 13:40:45 17° 259° (W) 13:43:25 145.935-145.965
NANOSAT C BR1 31 Jul 13:39:43 13:42:29 16° 260° (W) 13:45:03 145.865
CUBEBUG 1 31 Jul 13:42:50 13:46:26 25° 280° (W) 13:49:56 437.445
SPROUT 31 Jul 14:23:08 14:26:57 31° 281° (W) 14:30:44 437.525
TISAT 1 31 Jul 14:39:28 14:43:17 33° 281° (W) 14:47:05 437.305
BEESAT 31 Jul 14:44:06 14:47:52 24° 101° (E) 14:51:45 436.000
SRMSAT 31 Jul 14:49:55 14:55:52 83° 202° (SSW) 15:01:53 437.500
JUGNU 31 Jul 14:50:18 14:55:26 31° 198° (SSW) 15:00:33 437.505
YUBILEINY 31 Jul 14:55:53 15:02:42 23° 264° (W) 15:09:01 435.215
Cosmos 2491 31 Jul 15:02:37 15:08:32 18° 276° (W) 15:13:45 435.465 / 435.565
SWISSCUBE 31 Jul 15:03:41 15:08:16 50° 102° (ESE) 15:12:53 437.505
Oscar 19 31 Jul 15:06:07 15:11:15 89° 251° (WSW) 15:16:22 437.125/150
O/OREOS (USA 219) 31 Jul 15:08:07 15:10:34 14° 253° (WSW) 15:12:45 437.305
ITUPSAT 1 31 Jul 15:23:56 15:28:41 83° 102° (ESE) 15:33:28 437.325
Cosmos 2504 31 Jul 15:45:44 15:54:20 74° 86° (E) 16:02:46 435.465 / 435.565
JAS-2 31 Jul 15:53:12 15:56:19 16° 77° (ENE) 15:59:56 435.910
KKS-1 31 Jul 15:54:06 15:57:21 21° 101° (E) 16:00:45 437.445
Gurwin Techsat 1B 31 Jul 15:56:16 16:01:35 78° 79° (E) 16:06:54 435.225
AO-7 31 Jul 16:15:46 16:20:37 18° 76° (ENE) 16:26:06 29.400- 29.500
BEESAT 31 Jul 16:22:26 16:25:35 17° 281° (W) 16:28:31 436.000
VERMONT LUNAR 31 Jul 16:22:28 16:25:36 85° 312° (NW) 16:28:45 437.305
ITAMSAT 1 31 Jul 16:24:44 16:29:51 55° 258° (WSW) 16:34:56 435.822/435.867
SRMSAT 31 Jul 16:39:59 16:45:13 31° 198° (SSW) 16:50:27 437.500
JUGNU 31 Jul 16:41:54 16:45:02 14° 191° (S) 16:48:05 437.505
DANDE 31 Jul 16:45:46 16:50:24 29° 89° (E) 16:56:22 436.750
STARS 31 Jul 17:05:04 17:09:29 74° 283° (WNW) 17:13:56 437.465
HORYU 2 31 Jul 17:12:04 17:16:19 47° 78° (ENE) 17:20:35 437.375
CUSAT 1 31 Jul 17:12:25 17:18:16 89° 266° (W) 17:25:47 437.405
